Weather History for Oakes, ND

Change the Weather History Date:

Tuesday, November 13, 2012

  Actual Average (KABR) Record (KABR)
Temperature  
Mean Temperature 22 °F 31 °F  
Max Temperature 32 °F 41 °F 69 °F (1999)
Min Temperature 12 °F 20 °F -11 °F (1919)
Degree Days  
Heating Degree Days 43 34  
Month to date heating degree days 402  
Since 1 July heating degree days 1293  
Cooling Degree Days 0 0  
Month to date cooling degree days 0  
Year to date cooling degree days 525  
Moisture  
Dew Point 22 °F    
Average Humidity 95    
Maximum Humidity 100    
Minimum Humidity 80    
Precipitation  
Precipitation 0.00 in 0.03 in 0.70 in (1922)
Month to date precipitation 0.37  
Year to date precipitation 20.84  
Snow  
Snow 0.00 in - - ()
Month to date snowfall  
Since 1 July snowfall  
Snow Depth -    
Sea Level Pressure  
Sea Level Pressure 30.18 in    
Wind  
Wind Speed 9 mph (South)    
Max Wind Speed 14 mph    
Max Gust Speed -    
Visibility 10 miles    
Events      
T = Trace of Precipitation, MM = Missing Value Source: NWS Daily Summary

Daily Weather History Graph

Daily Weather History Graph

Search for Another Location

Airport:

Trip Planner

Search our weather history database for the weather conditions in past years. The results will help you decide how hot, cold, wet, or windy it might be!

Date:

Astronomy

Nov. 13, 2012 Rise Set
Actual Time 7:31 AM CST 5:01 PM CST
Civil Twilight 6:58 AM CST 5:34 PM CST
Nautical Twilight 6:22 AM CST 6:10 PM CST
Astronomical Twilight 5:47 AM CST 6:45 PM CST
Moon 7:11 AM CST (11/13) 4:54 PM CST (11/13)
Length of Visible Light 10h 35m
Length of Day
9h 30m
Waning Crescent, 0% of the Moon is Illuminated
Nov 13
Waning Crescent
Nov 13
New
Nov 20
First Quarter
Nov 28
Full
Dec 6
Last Quarter

Hourly Weather History & Observations

Time (CST) Temp. Windchill Dew Point Humidity Pressure Visibility Wind Dir Wind Speed Gust Speed Precip Events Conditions
12:15 AM 15.8 °F 2.1 °F 14.0 °F 93% 30.17 in 10.0 mi South 12.7 mph - N/A   Clear
12:35 AM 15.8 °F 1.4 °F 14.0 °F 93% 30.18 in 10.0 mi South 13.8 mph - N/A   Unknown
12:55 AM 15.8 °F 1.4 °F 14.0 °F 93% 30.18 in 10.0 mi SSW 13.8 mph - N/A   Unknown
1:15 AM 15.8 °F 1.4 °F 14.0 °F 93% 30.18 in 10.0 mi SSW 13.8 mph - N/A   Unknown
1:35 AM 15.8 °F 2.7 °F 14.0 °F 93% 30.18 in 10.0 mi SSW 11.5 mph - N/A   Clear
1:55 AM 14.0 °F 3.9 °F 14.0 °F 100% 30.18 in 10.0 mi South 6.9 mph - N/A   Clear
2:15 AM 14.0 °F 2.9 °F 14.0 °F 100% 30.18 in 10.0 mi South 8.1 mph - N/A   Clear
2:35 AM 14.0 °F -0.8 °F 14.0 °F 100% 30.18 in 10.0 mi SSW 13.8 mph - N/A   Clear
2:55 AM 14.0 °F 0.5 °F 14.0 °F 100% 30.19 in 10.0 mi SSW 11.5 mph - N/A   Unknown
3:15 AM 14.0 °F 3.9 °F 14.0 °F 100% 30.19 in 10.0 mi SSW 6.9 mph - N/A   Unknown
3:35 AM 14.0 °F 8.2 °F 12.2 °F 93% 30.18 in 10.0 mi South 3.5 mph - N/A   Unknown
3:55 AM 14.0 °F 3.9 °F 14.0 °F 100% 30.18 in 10.0 mi South 6.9 mph - N/A   Clear
4:15 AM 14.0 °F 6.5 °F 12.2 °F 93% 30.18 in 10.0 mi South 4.6 mph - N/A   Clear
4:35 AM 14.0 °F 3.9 °F 14.0 °F 100% 30.18 in 10.0 mi South 6.9 mph - N/A   Clear
4:55 AM 14.0 °F 3.9 °F 14.0 °F 100% 30.18 in 10.0 mi South 6.9 mph - N/A   Clear
5:15 AM 14.0 °F 3.9 °F 14.0 °F 100% 30.18 in 10.0 mi South 6.9 mph - N/A   Unknown
5:35 AM 14.0 °F 3.9 °F 14.0 °F 100% 30.18 in 10.0 mi South 6.9 mph - N/A   Unknown
5:55 AM 14.0 °F 2.0 °F 12.2 °F 93% 30.20 in 10.0 mi South 9.2 mph - N/A   Unknown
6:35 AM 12.2 °F 1.7 °F 12.2 °F 100% 30.19 in 10.0 mi South 6.9 mph - N/A   Clear
6:55 AM 12.2 °F 1.7 °F 12.2 °F 100% 30.19 in 10.0 mi South 6.9 mph - N/A   Clear
7:15 AM 14.0 °F 1.2 °F 14.0 °F 100% 30.20 in 10.0 mi SSW 10.4 mph - N/A   Clear
7:35 AM 14.0 °F 2.9 °F 12.2 °F 93% 30.20 in 10.0 mi SSW 8.1 mph - N/A   Clear
7:55 AM 14.0 °F 3.9 °F 14.0 °F 100% 30.20 in 10.0 mi South 6.9 mph - N/A   Unknown
8:15 AM 15.8 °F 8.6 °F 15.8 °F 100% 30.19 in 10.0 mi South 4.6 mph - N/A   Unknown
8:35 AM 15.8 °F 6.1 °F 14.0 °F 93% 30.20 in 10.0 mi SSW 6.9 mph - N/A   Unknown
8:55 AM 15.8 °F 6.1 °F 15.8 °F 100% 30.21 in 10.0 mi SSW 6.9 mph - N/A   Clear
9:15 AM 17.6 °F 6.4 °F 15.8 °F 93% 30.20 in 10.0 mi South 9.2 mph - N/A   Clear
9:35 AM 17.6 °F 6.4 °F 15.8 °F 93% 30.21 in 10.0 mi South 9.2 mph - N/A   Clear
10:15 AM 23.0 °F 14.7 °F 19.4 °F 86% 30.21 in 10.0 mi South 6.9 mph - N/A   Mostly Cloudy
10:35 AM 23.0 °F 13.9 °F 21.2 °F 93% 30.20 in 10.0 mi South 8.1 mph - N/A   Overcast
10:55 AM 24.8 °F 16.9 °F 23.0 °F 93% 30.20 in 10.0 mi South 6.9 mph - N/A   Overcast
11:15 AM 24.8 °F 16.9 °F 23.0 °F 93% 30.20 in 10.0 mi South 6.9 mph - N/A   Unknown
11:35 AM 24.8 °F 16.1 °F 23.0 °F 93% 30.20 in 10.0 mi SSW 8.1 mph - N/A   Unknown
11:55 AM 26.6 °F 19.1 °F 23.0 °F 86% 30.19 in 10.0 mi South 6.9 mph - N/A   Unknown
12:15 PM 26.6 °F 19.1 °F 24.8 °F 93% 30.18 in 10.0 mi South 6.9 mph - N/A   Unknown
12:55 PM 28.4 °F 19.7 °F 26.6 °F 93% 30.18 in 10.0 mi South 9.2 mph - N/A   Unknown
1:15 PM 30.2 °F 22.6 °F 26.6 °F 86% 30.17 in 10.0 mi South 8.1 mph - N/A   Unknown
1:35 PM 30.2 °F 23.4 °F 26.6 °F 86% 30.17 in 10.0 mi South 6.9 mph - N/A   Unknown
1:55 PM 32.0 °F 25.6 °F 28.4 °F 87% 30.17 in 10.0 mi South 6.9 mph - N/A   Unknown
2:15 PM 32.0 °F 25.6 °F 26.6 °F 80% 30.17 in 10.0 mi South 6.9 mph - N/A   Unknown
2:35 PM 32.0 °F 24.2 °F 28.4 °F 87% 30.16 in 10.0 mi South 9.2 mph - N/A   Unknown
2:55 PM 32.0 °F 24.2 °F 28.4 °F 87% 30.16 in 10.0 mi South 9.2 mph - N/A   Unknown
3:15 PM 32.0 °F 23.6 °F 28.4 °F 87% 30.16 in 10.0 mi South 10.4 mph - N/A   Unknown
3:35 PM 32.0 °F 24.8 °F 28.4 °F 87% 30.17 in 10.0 mi South 8.1 mph - N/A   Unknown
3:55 PM 32.0 °F 24.8 °F 28.4 °F 87% 30.17 in 10.0 mi South 8.1 mph - N/A   Unknown
4:15 PM 32.0 °F 24.8 °F 30.2 °F 93% 30.18 in 10.0 mi SSW 8.1 mph - N/A   Unknown
4:35 PM 32.0 °F 24.2 °F 28.4 °F 87% 30.17 in 10.0 mi South 9.2 mph - N/A   Unknown
4:55 PM 32.0 °F 27.5 °F 30.2 °F 93% 30.17 in 10.0 mi SSW 4.6 mph - N/A   Unknown
5:15 PM 32.0 °F 26.4 °F 30.2 °F 93% 30.18 in 10.0 mi South 5.8 mph - N/A   Unknown
5:35 PM 32.0 °F 24.8 °F 30.2 °F 93% 30.17 in 10.0 mi South 8.1 mph - N/A   Unknown
5:55 PM 30.2 °F 21.9 °F 30.2 °F 100% 30.17 in 10.0 mi South 9.2 mph - N/A   Unknown
6:15 PM 28.4 °F 24.6 °F 28.4 °F 100% 30.18 in 10.0 mi South 3.5 mph - N/A   Unknown
6:35 PM 30.2 °F 21.9 °F 28.4 °F 93% 30.18 in 10.0 mi South 9.2 mph - N/A   Unknown
6:55 PM 32.0 °F 24.8 °F 30.2 °F 93% 30.19 in 10.0 mi SSW 8.1 mph - N/A   Unknown
7:15 PM 30.2 °F 21.9 °F 30.2 °F 100% 30.19 in 10.0 mi South 9.2 mph - N/A   Unknown
7:35 PM 32.0 °F 24.8 °F 32.0 °F 100% 30.19 in 10.0 mi SSW 8.1 mph - N/A   Unknown
7:55 PM 30.2 °F 22.6 °F 30.2 °F 100% 30.18 in 10.0 mi South 8.1 mph - N/A   Unknown
8:15 PM 30.2 °F 23.4 °F 30.2 °F 100% 30.18 in 10.0 mi SSW 6.9 mph - N/A   Unknown
8:35 PM 30.2 °F 22.6 °F 30.2 °F 100% 30.19 in 10.0 mi SSW 8.1 mph - N/A   Unknown
8:55 PM 30.2 °F 23.4 °F 30.2 °F 100% 30.19 in 10.0 mi SSW 6.9 mph - N/A   Unknown
9:15 PM 30.2 °F 23.4 °F 30.2 °F 100% 30.19 in 10.0 mi SSW 6.9 mph - N/A   Unknown
9:35 PM 30.2 °F 23.4 °F 30.2 °F 100% 30.19 in 10.0 mi SSW 6.9 mph - N/A   Unknown
9:55 PM 30.2 °F - 30.2 °F 100% 30.19 in 10.0 mi Calm Calm - N/A   Unknown
10:15 PM 28.4 °F - 28.4 °F 100% 30.19 in 10.0 mi Calm Calm - N/A   Unknown
10:35 PM 28.4 °F - 28.4 °F 100% 30.19 in 10.0 mi Calm Calm - N/A   Unknown
10:55 PM 28.4 °F 23.3 °F 28.4 °F 100% 30.19 in 10.0 mi South 4.6 mph - N/A   Unknown
11:15 PM 26.6 °F 22.6 °F 26.6 °F 100% 30.19 in 10.0 mi SSE 3.5 mph - N/A   Unknown
11:35 PM 24.8 °F 19.1 °F 24.8 °F 100% 30.19 in 5.0 mi SSE 4.6 mph - N/A   Mist
11:55 PM 24.8 °F 19.1 °F 24.8 °F 100% 30.20 in 5.0 mi SSW 4.6 mph - N/A   Mist